Novato, CA

6:06 AM PDT on September 16, 2019 (GMT -0700)
Gnoss

Weather History for KDVO - August, 2019

Change the Weather History Date:

Sunday, August 25, 2019

  Actual Average (WUND) Record (WUND)
Temperature  
Mean Temperature 74 °F -  
Max Temperature 95 °F - - (-1)
Min Temperature 53 °F - - (-1)
Cooling Degree Days 9    
Growing Degree Days 24 (Base 50)    
Moisture  
Dew Point 56 °F    
Average Humidity 68    
Maximum Humidity 100    
Minimum Humidity 16    
Precipitation  
Precipitation 0.00 in - - ()
Sea Level Pressure  
Sea Level Pressure 29.96 in    
Wind  
Wind Speed 6 mph ()    
Max Wind Speed 15 mph    
Max Gust Speed 23 mph    
Visibility 9.7 miles    
Events      
Averages and records for this station are not official NWS values.
T = Trace of Precipitation, MM = Missing Value Source: Averaged Metar Reports

Daily Weather History Graph

Daily Weather History Graph

Search for Another Location

Airport or City:

Astronomy

Aug. 25, 2019 Rise Set
Actual Time 6:33 AM PDT 7:50 PM PDT
Civil Twilight 6:06 AM PDT 8:17 PM PDT
Nautical Twilight 5:33 AM PDT 8:50 PM PDT
Astronomical Twilight 4:59 AM PDT 9:24 PM PDT
Moon 1:15 AM PDT (8/25) 4:13 PM PDT (8/25)
Length of Visible Light 14h 11m
Length of Day
13h 16m
Waning Crescent, 28% of the Moon is Illuminated
Aug 25
Waning Crescent
Aug 30
New
Sep 5
First Quarter
Sep 13
Full
Sep 21
Last Quarter

Hourly Weather History & Observations

Time (PDT) Temp. Heat Index Dew Point Humidity Pressure Visibility Wind Dir Wind Speed Gust Speed Precip Events Conditions
12:15 AM 57.2 °F - 55.4 °F 94% 29.97 in 10.0 mi NNW 4.6 mph - N/A   Clear
12:35 AM 57.2 °F - 55.4 °F 94% 29.97 in 10.0 mi NNW 5.8 mph - N/A   Clear
12:55 AM 57.2 °F - 57.2 °F 100% 29.97 in 10.0 mi North 8.1 mph - N/A   Clear
1:15 AM 59.0 °F - 57.2 °F 94% 29.97 in 10.0 mi North 6.9 mph - N/A   Clear
1:55 AM 57.2 °F - 57.2 °F 100% 29.97 in 10.0 mi North 5.8 mph - N/A   Mostly Cloudy
2:15 AM 57.2 °F - 57.2 °F 100% 29.97 in 10.0 mi NNW 8.1 mph - N/A   Overcast
2:35 AM 57.2 °F - 57.2 °F 100% 29.97 in 10.0 mi NNW 8.1 mph - N/A   Overcast
2:55 AM 57.2 °F - 57.2 °F 100% 29.97 in 10.0 mi North - - N/A   Overcast
3:15 AM 57.2 °F - 57.2 °F 100% 29.97 in 10.0 mi NNW 8.1 mph - N/A   Overcast
3:35 AM 57.2 °F - 57.2 °F 100% 29.97 in 10.0 mi North 9.2 mph - N/A   Overcast
3:55 AM 57.2 °F - 57.2 °F 100% 29.97 in 10.0 mi NNW 9.2 mph - N/A   Overcast
4:15 AM 57.2 °F - 55.4 °F 94% 29.97 in 10.0 mi NNW 8.1 mph - N/A   Overcast
4:35 AM 55.4 °F - 55.4 °F 100% 29.97 in 10.0 mi North 6.9 mph - N/A   Scattered Clouds
4:55 AM 55.4 °F - 55.4 °F 100% 29.98 in 10.0 mi North 5.8 mph - N/A   Clear
5:15 AM 55.4 °F - 55.4 °F 100% 29.97 in 10.0 mi Calm Calm - N/A   Clear
5:35 AM 53.6 °F - 53.6 °F 100% 29.98 in 10.0 mi North 3.5 mph - N/A   Clear
5:55 AM 53.6 °F - 53.6 °F 100% 29.98 in 10.0 mi North 4.6 mph - N/A   Partly Cloudy
6:15 AM 55.4 °F - 55.4 °F 100% 29.99 in 10.0 mi NNW 5.8 mph - N/A   Mostly Cloudy
6:35 AM 55.4 °F - 55.4 °F 100% 29.99 in 10.0 mi NNW 4.6 mph - N/A   Mostly Cloudy
6:55 AM 53.6 °F - 53.6 °F 100% 29.99 in 10.0 mi NNW 4.6 mph - N/A   Partly Cloudy
7:35 AM 57.2 °F - 57.2 °F 100% 30.00 in 10.0 mi NNW 4.6 mph - N/A   Scattered Clouds
7:55 AM 59.0 °F - 57.2 °F 94% 30.00 in 10.0 mi Calm Calm - N/A   Clear
8:15 AM 60.8 °F - 57.2 °F 88% 30.01 in 10.0 mi Calm Calm - N/A   Clear
8:35 AM 64.4 °F - 57.2 °F 77% 30.01 in 10.0 mi NNE 4.6 mph - N/A   Clear
8:55 AM 64.4 °F - 57.2 °F 77% 30.01 in 10.0 mi Calm Calm - N/A   Clear
9:15 AM 66.2 °F - 57.2 °F 73% 30.00 in 10.0 mi Calm Calm - N/A   Clear
9:35 AM 66.2 °F - 57.2 °F 73% 30.00 in 10.0 mi Calm Calm - N/A   Clear
9:55 AM 69.8 °F - 59.0 °F 68% 30.00 in 10.0 mi Calm Calm - N/A   Clear
10:15 AM 69.8 °F - 57.2 °F 64% 30.00 in 10.0 mi Calm Calm - N/A   Clear
10:35 AM 73.4 °F - 59.0 °F 61% 30.00 in 10.0 mi Calm Calm - N/A   Clear
10:55 AM 75.2 °F - 59.0 °F 57% 30.00 in 10.0 mi Variable 4.6 mph - N/A   Clear
11:15 AM 77.0 °F - 59.0 °F 54% 30.00 in 10.0 mi ESE 4.6 mph - N/A   Clear
11:35 AM 77.0 °F - 62.6 °F 61% 29.99 in 10.0 mi SE 6.9 mph - N/A   Clear
11:55 AM 80.6 °F 81.5 °F 60.8 °F 51% 29.98 in 9.0 mi Variable 3.5 mph - N/A   Clear
12:15 PM 82.4 °F 82.9 °F 60.8 °F 48% 29.98 in 9.0 mi East 5.8 mph - N/A   Clear
12:35 PM 82.4 °F 82.9 °F 60.8 °F 48% 29.97 in 7.0 mi Variable 4.6 mph - N/A   Clear
12:55 PM 86.0 °F 86.1 °F 60.8 °F 43% 29.96 in 4.0 mi Calm Calm - N/A   Haze
1:15 PM 91.4 °F 91.4 °F 60.8 °F 36% 29.96 in 9.0 mi WNW 8.1 mph 17.3 mph N/A   Clear
1:35 PM 91.4 °F 90.7 °F 59.0 °F 34% 29.95 in 7.0 mi North 13.8 mph - N/A   Clear
1:55 PM 93.2 °F 92.6 °F 59.0 °F 32% 29.95 in 10.0 mi NNW 12.7 mph - N/A   Clear
2:15 PM 93.2 °F 91.9 °F 57.2 °F 30% 29.95 in 10.0 mi North 11.5 mph - N/A   Clear
2:35 PM 93.2 °F 91.3 °F 55.4 °F 28% 29.94 in 8.0 mi WSW 10.4 mph 16.1 mph N/A   Clear
2:55 PM 93.2 °F 90.8 °F 53.6 °F 26% 29.94 in 7.0 mi SW 12.7 mph - N/A   Clear
3:15 PM 93.2 °F - 50.0 °F 23% 29.93 in 10.0 mi Calm Calm 23.0 mph N/A   Clear
3:35 PM 95.0 °F - 50.0 °F 22% 29.93 in 9.0 mi WNW 6.9 mph - N/A   Clear
3:55 PM 95.0 °F - 46.4 °F 19% 29.93 in 9.0 mi West 8.1 mph 16.1 mph N/A   Clear
4:15 PM 95.0 °F - 42.8 °F 16% 29.92 in 10.0 mi Variable 3.5 mph 11.5 mph N/A   Clear
4:35 PM 93.2 °F - 42.8 °F 17% 29.92 in 9.0 mi NNW 11.5 mph - N/A   Clear
4:55 PM 93.2 °F - 42.8 °F 17% 29.92 in 10.0 mi NNW 13.8 mph - N/A   Clear
5:15 PM 91.4 °F - 46.4 °F 21% 29.91 in 10.0 mi North 15.0 mph - N/A   Clear
5:35 PM 86.0 °F 84.2 °F 53.6 °F 33% 29.91 in 10.0 mi North 13.8 mph - N/A   Clear
5:55 PM 86.0 °F 84.2 °F 53.6 °F 33% 29.91 in 10.0 mi NNW 10.4 mph 17.3 mph N/A   Clear
6:15 PM 86.0 °F - 51.8 °F 31% 29.91 in 10.0 mi NNE 8.1 mph 15.0 mph N/A   Clear
6:35 PM 78.8 °F - 55.4 °F 44% 29.91 in 10.0 mi NNE 13.8 mph - N/A   Clear
6:55 PM 77.0 °F - 55.4 °F 47% 29.91 in 10.0 mi North 8.1 mph 17.3 mph N/A   Clear
7:15 PM 73.4 °F - 57.2 °F 57% 29.91 in 10.0 mi North 9.2 mph - N/A   Clear
7:35 PM 71.6 °F - 57.2 °F 60% 29.91 in 10.0 mi North 9.2 mph - N/A   Clear
7:55 PM 68.0 °F - 55.4 °F 64% 29.92 in 10.0 mi North 9.2 mph - N/A   Clear
8:15 PM 66.2 °F - 55.4 °F 68% 29.93 in 10.0 mi North 9.2 mph - N/A   Clear
8:35 PM 64.4 °F - 55.4 °F 73% 29.93 in 10.0 mi North 10.4 mph - N/A   Clear
8:55 PM 62.6 °F - 55.4 °F 77% 29.94 in 10.0 mi North 8.1 mph - N/A   Clear
9:35 PM 60.8 °F - 55.4 °F 82% 29.95 in 10.0 mi North 8.1 mph - N/A   Clear
9:55 PM 60.8 °F - 55.4 °F 82% 29.95 in 10.0 mi North 10.4 mph - N/A   Clear
10:15 PM 60.8 °F - 55.4 °F 82% 29.95 in 10.0 mi North 10.4 mph - N/A   Clear
10:35 PM 59.0 °F - 55.4 °F 88% 29.95 in 10.0 mi North 8.1 mph - N/A   Clear
10:55 PM 59.0 °F - 55.4 °F 88% 29.95 in 10.0 mi North 6.9 mph - N/A   Clear
11:15 PM 57.2 °F - 55.4 °F 94% 29.94 in 10.0 mi North - - N/A   Clear
11:35 PM 57.2 °F - 55.4 °F 94% 29.94 in 10.0 mi North 8.1 mph - N/A   Clear
11:55 PM 57.2 °F - 55.4 °F 94% 29.94 in 10.0 mi North 9.2 mph - N/A   Clear